Regional Weather Roundup
Issued by NWS Green Bay, WI

Home | Current Version | Previous Version | Text Only | Print | Product List | Glossary On
Versions: 1 2 3 4 5 6 7 8 9 10 11 12 13 14 15 16 17 18 19 20 21 22 23 24 25 26 27 28 29 30 31 32 33 34 35 36 37 38 39 40 41 42 43 44 45 46 47 48 49 50
000
ASUS43 KGRB 031611
RWRGRB

NORTH-CENTRAL AND NORTHEAST WISCONSIN REGIONAL WEATHER ROUNDUP
NATIONAL WEATHER SERVICE GREEN BAY WI
1000 AM CST SAT DEC 03 2016

WIZ005-009-010>012-018-019-031700-
NORTH CENTRAL WISCONSIN

CITY           SKY/WX    TMP DP  RH WIND       PRES   REMARKS
IRONWOOD       FLURRIES  29  27  92 SW7       30.26S
MANITOWISH WTR CLOUDY    27  25  95 CALM      30.24S
ARBOR VITAE    CLOUDY    29  25  84 CALM      30.24S
EAGLE RIVER    CLOUDY    27  23  87 W6        30.24S
LAND O LAKES   CLOUDY    28  26  89 SW5       30.25F
RHINELANDER    CLOUDY    27  23  85 CALM      30.25F
PHILLIPS       CLOUDY    27  25  94 SW5       30.25S
ANTIGO         CLOUDY    27  23  86 W9        30.26S
TOMAHAWK       CLOUDY    27  21  77 CALM      30.26S
MERRILL        CLOUDY    28  24  86 CALM      30.27F
$$

WIZ013-073-031700-
NORTHEAST WISCONSIN

CITY           SKY/WX    TMP DP  RH WIND       PRES   REMARKS
IRON MOUNTAIN  CLOUDY    33  25  72 NW6       30.24F
MARINETTE      CLOUDY    34  28  79 VRB3      30.30S
OCONTO         CLOUDY    32  25  74 W8        30.30F
$$

WIZ017-030-035>037-045-031700-
CENTRAL WISCONSIN

CITY           SKY/WX    TMP DP  RH WIND       PRES   REMARKS
MEDFORD        CLOUDY    27  20  75 CALM      30.26R
WAUSAU         CLOUDY    29  21  72 NW5       30.27S
MOSINEE        CLOUDY    28  25  86 W5        30.28S
MARSHFIELD     CLOUDY    28  23  81 W8        30.27R
WISC RAPIDS    CLOUDY    30  22  72 W7        30.31R
STEVENS POINT  CLOUDY    29  20  71 CALM      30.29S
WAUPACA        CLOUDY    33  24  68 CALM      30.30F
SHAWANO        CLOUDY    33  24  71 NW6       30.31S
CLINTONVILLE   CLOUDY    32  23  69 W7        30.31S
WAUTOMA        CLOUDY    31  23  72 W7        30.32R
$$

WIZ038-039-048-051-031700-
FOX VALLEY

CITY           SKY/WX    TMP DP  RH WIND       PRES   REMARKS
NWS GREEN BAY  CLOUDY    33  25  72 W6        30.31S
APPLETON       CLOUDY    30  21  69 VRB6      30.29S
OSHKOSH        CLOUDY    32  23  69 NW8       30.30S
FOND DU LAC    CLOUDY    32  21  64 NW7       30.32R
$$

WIZ022-050-052-031700-
EAST CENTRAL WISCONSIN

CITY           SKY/WX    TMP DP  RH WIND       PRES   REMARKS
EPHRAIM        CLOUDY    33  30  88 W6        30.28S
WASHINGTON ISL CLOUDY    36  29  77 NW7       30.27F
STURGEON BAY   CLOUDY    33  27  78 W6        30.30S
MANITOWOC      CLOUDY    32  24  72 W10       30.31S
SHEBOYGAN      CLOUDY    31  24  75 W9        30.31F
$$

LMZ563-521-522-541>543-031700-
LAKESHORE

STATION/POSITION TIME  TEMP    WIND        PRES    VSBY  WAVE
                       AIR SEA DIR/SP/G                  HT/PER
                 (UTC) (F)     (DEG/KT/KT) (MB)    (MI)  (FT/S)
SHEBOYGAN LKSHOR 1600   32     260/  8/  9 1027.2F
KEWAUNEE LKSHORE 1548   32     290/ 10/ 13 1025.5F
ALGOMA MARINA    1536          290/  6/  8   N/A
NORTHPORT PIER   1540   36     260/  1/  5 1025.4S
SISTER BAY LKSHO 1523   36     310/ 11/ 12   N/A
CHAMBERS ISLAND  1540   35     230/  3/  8 1025.1S
MENOMINEE LKSHOR 1548   33     230/  9/ 11 1024.9F
$$




USA.gov is the U.S. government's official web portal to all federal, state and local government web resources and services.